• In Deutschland
  • Länderverzeichnis
  • Für 7 Tage
  • Wassertemperatur
  • Satellitenkarten
  • Wetterkarte
  • Widgets
  • user-avatar
    Anmelden

    Stündliche Wetter Brandenburg an der Havel

    Heute, 17 Oktober, Dienstag

    Zeit Temperatur Niederschläge Wind Luftdruck Luftfeuchtigkeit
    00:00 +16°C° 0 mm 3 m/S 764 mmHg 76%
    01:00 +16°C° 0 mm 3 m/S 764 mmHg 75%
    02:00 +16°C° 0 mm 2 m/S 764 mmHg 75%
    03:00 +15°C° 0 mm 2 m/S 764 mmHg 75%
    04:00 +15°C° 0 mm 2 m/S 764 mmHg 74%
    05:00 +15°C° 0 mm 2 m/S 764 mmHg 75%
    06:00 +14°C° 0 mm 2 m/S 764 mmHg 76%
    07:00 +14°C° 0 mm 2 m/S 764 mmHg 77%
    08:00 +16°C° 0 mm 2 m/S 764 mmHg 72%
    09:00 +17°C° 0 mm 2 m/S 764 mmHg 66%
    10:00 +19°C° 0 mm 2 m/S 764 mmHg 61%
    11:00 +20°C° 0 mm 3 m/S 764 mmHg 60%
    12:00 +21°C° 0 mm 3 m/S 763 mmHg 58%
    13:00 +22°C° 0 mm 3 m/S 763 mmHg 57%
    14:00 +23°C° 0 mm 2 m/S 763 mmHg 60%
    15:00 +21°C° 0 mm 2 m/S 762 mmHg 63%
    16:00 +21°C° 0 mm 2 m/S 762 mmHg 66%
    17:00 +21°C° 0 mm 1 m/S 762 mmHg 72%
    18:00 +19°C° 0 mm 1 m/S 762 mmHg 78%
    19:00 +18°C° 0 mm 1 m/S 762 mmHg 83%
    20:00 +16°C° 0 mm 1 m/S 762 mmHg 85%
    21:00 +16°C° 0 mm 1 m/S 762 mmHg 87%
    22:00 +16°C° 0 mm 1 m/S 761 mmHg 88%
    23:00 +15°C° 0 mm 1 m/S 761 mmHg 89%

    Morgen, 18 Oktober, Mittwoch

    Zeit Temperatur Niederschläge Wind Luftdruck Luftfeuchtigkeit
    00:00 +15°C° 0 mm 1 m/S 761 mmHg 90%
    01:00 +15°C° 0 mm 1 m/S 761 mmHg 92%
    02:00 +14°C° 0 mm 1 m/S 761 mmHg 92%
    03:00 +13°C° 0 mm 0 m/S 760 mmHg 93%
    04:00 +13°C° 0 mm 0 m/S 760 mmHg 93%
    05:00 +12°C° 0 mm 0 m/S 760 mmHg 93%
    06:00 +12°C° 0 mm 0 m/S 760 mmHg 93%
    07:00 +12°C° 0 mm 0 m/S 760 mmHg 94%
    08:00 +14°C° 0 mm 0 m/S 760 mmHg 88%
    09:00 +16°C° 0 mm 1 m/S 760 mmHg 82%
    10:00 +19°C° 0 mm 1 m/S 760 mmHg 76%
    11:00 +20°C° 0 mm 1 m/S 759 mmHg 72%
    12:00 +21°C° 0 mm 1 m/S 759 mmHg 67%
    13:00 +22°C° 0 mm 1 m/S 759 mmHg 63%
    14:00 +22°C° 0 mm 1 m/S 758 mmHg 65%
    15:00 +21°C° 0 mm 1 m/S 758 mmHg 67%
    16:00 +21°C° 0 mm 1 m/S 758 mmHg 69%
    17:00 +20°C° 0 mm 1 m/S 758 mmHg 72%
    18:00 +18°C° 0 mm 1 m/S 758 mmHg 76%
    19:00 +16°C° 0 mm 1 m/S 758 mmHg 80%
    20:00 +16°C° 0 mm 1 m/S 758 mmHg 81%
    21:00 +15°C° 0 mm 1 m/S 758 mmHg 83%
    22:00 +15°C° 0 mm 1 m/S 758 mmHg 84%
    23:00 +14°C° 0 mm 1 m/S 758 mmHg 85%

    übermorgen, 19 Oktober, Donnerstag

    Zeit Temperatur Niederschläge Wind Luftdruck Luftfeuchtigkeit
    00:00 +14°C° 0 mm 1 m/S 758 mmHg 86%
    01:00 +13°C° 0 mm 1 m/S 758 mmHg 87%
    02:00 +13°C° 0 mm 1 m/S 758 mmHg 88%
    03:00 +13°C° 0 mm 1 m/S 758 mmHg 89%
    04:00 +12°C° 0 mm 1 m/S 758 mmHg 89%
    05:00 +12°C° 0 mm 1 m/S 758 mmHg 90%
    06:00 +12°C° 0 mm 1 m/S 758 mmHg 90%
    07:00 +11°C° 0 mm 1 m/S 758 mmHg 90%
    08:00 +13°C° 0 mm 2 m/S 758 mmHg 83%
    09:00 +15°C° 0 mm 2 m/S 758 mmHg 76%
    10:00 +17°C° 0 mm 2 m/S 758 mmHg 69%
    11:00 +18°C° 0 mm 2 m/S 758 mmHg 65%
    12:00 +19°C° 0 mm 2 m/S 757 mmHg 61%
    13:00 +20°C° 0 mm 2 m/S 757 mmHg 57%
    14:00 +20°C° 0 mm 2 m/S 757 mmHg 59%
    15:00 +20°C° 0 mm 2 m/S 757 mmHg 61%
    16:00 +20°C° 0 mm 1 m/S 757 mmHg 64%
    17:00 +19°C° 0 mm 1 m/S 757 mmHg 67%
    18:00 +18°C° 0 mm 1 m/S 757 mmHg 70%
    19:00 +16°C° 0 mm 2 m/S 757 mmHg 74%
    20:00 +15°C° 0 mm 2 m/S 757 mmHg 75%
    21:00 +15°C° 0 mm 2 m/S 757 mmHg 76%
    22:00 +15°C° 0 mm 2 m/S 757 mmHg 77%
    23:00 +14°C° 0 mm 2 m/S 757 mmHg 77%

    20 Oktober, Freitag

    Zeit Temperatur Niederschläge Wind Luftdruck Luftfeuchtigkeit
    00:00 +14°C° 0 mm 2 m/S 757 mmHg 78%
    01:00 +14°C° 0 mm 2 m/S 757 mmHg 79%
    02:00 +14°C° 0 mm 2 m/S 757 mmHg 77%
    03:00 +13°C° 0 mm 2 m/S 756 mmHg 76%
    04:00 +12°C° 0 mm 3 m/S 756 mmHg 75%
    05:00 +12°C° 0 mm 3 m/S 756 mmHg 74%
    06:00 +13°C° 0 mm 3 m/S 756 mmHg 73%
    07:00 +13°C° 0 mm 3 m/S 756 mmHg 71%
    08:00 +14°C° 0,2 mm 4 m/S 756 mmHg 73%
    09:00 +14°C° 0,2 mm 4 m/S 756 mmHg 74%
    10:00 +15°C° 0,2 mm 5 m/S 756 mmHg 75%
    11:00 +16°C° 0,3 mm 5 m/S 756 mmHg 74%
    12:00 +17°C° 0,3 mm 5 m/S 756 mmHg 73%
    13:00 +17°C° 0,3 mm 6 m/S 756 mmHg 72%
    14:00 +17°C° 0,1 mm 5 m/S 756 mmHg 71%
    15:00 +18°C° 0,1 mm 4 m/S 756 mmHg 70%
    16:00 +18°C° 0,1 mm 4 m/S 756 mmHg 69%
    17:00 +17°C° 0 mm 3 m/S 757 mmHg 73%
    18:00 +16°C° 0 mm 3 m/S 757 mmHg 77%
    19:00 +13°C° 0 mm 3 m/S 758 mmHg 80%
    20:00 +13°C° 0 mm 3 m/S 758 mmHg 82%
    21:00 +12°C° 0 mm 3 m/S 758 mmHg 83%
    22:00 +13°C° 0 mm 2 m/S 758 mmHg 84%
    23:00 +13°C° 0 mm 2 m/S 758 mmHg 86%

    21 Oktober, Samstag

    Zeit Temperatur Niederschläge Wind Luftdruck Luftfeuchtigkeit
    00:00 +12°C° 0 mm 2 m/S 758 mmHg 88%
    01:00 +12°C° 0 mm 2 m/S 758 mmHg 91%
    02:00 +12°C° 0 mm 2 m/S 757 mmHg 91%
    03:00 +11°C° 0 mm 3 m/S 757 mmHg 92%
    04:00 +11°C° 0 mm 3 m/S 756 mmHg 93%
    05:00 +11°C° 0 mm 3 m/S 756 mmHg 91%
    06:00 +12°C° 0 mm 4 m/S 755 mmHg 89%
    07:00 +13°C° 0 mm 4 m/S 755 mmHg 87%
    08:00 +13°C° 0,2 mm 4 m/S 755 mmHg 84%
    09:00 +14°C° 0,2 mm 4 m/S 754 mmHg 81%
    10:00 +15°C° 0,2 mm 4 m/S 754 mmHg 78%
    11:00 +15°C° 1,4 mm 4 m/S 754 mmHg 80%
    12:00 +15°C° 1,4 mm 4 m/S 754 mmHg 82%
    13:00 +15°C° 1,4 mm 4 m/S 754 mmHg 85%
    14:00 +15°C° 1 mm 4 m/S 754 mmHg 85%
    15:00 +15°C° 1 mm 4 m/S 753 mmHg 85%
    16:00 +15°C° 1 mm 4 m/S 753 mmHg 85%
    17:00 +15°C° 0,1 mm 5 m/S 754 mmHg 84%
    18:00 +15°C° 0,1 mm 5 m/S 754 mmHg 82%
    19:00 +14°C° 0,1 mm 5 m/S 754 mmHg 80%
    20:00 +14°C° 0 mm 5 m/S 754 mmHg 80%
    21:00 +13°C° 0 mm 5 m/S 754 mmHg 80%
    22:00 +12°C° 0 mm 5 m/S 754 mmHg 80%
    23:00 +12°C° 0 mm 5 m/S 755 mmHg 78%

    22 Oktober, Sonntag

    Zeit Temperatur Niederschläge Wind Luftdruck Luftfeuchtigkeit
    00:00 +10°C° 0 mm 5 m/S 755 mmHg 77%
    01:00 +10°C° 0 mm 5 m/S 755 mmHg 76%
    02:00 +9°C° 0 mm 5 m/S 755 mmHg 75%
    03:00 +9°C° 0 mm 5 m/S 755 mmHg 75%
    04:00 +8°C° 0 mm 5 m/S 754 mmHg 74%
    05:00 +8°C° 0 mm 5 m/S 754 mmHg 74%
    06:00 +8°C° 0 mm 5 m/S 755 mmHg 74%
    07:00 +7°C° 0 mm 5 m/S 755 mmHg 74%
    08:00 +8°C° 0 mm 5 m/S 755 mmHg 70%
    09:00 +9°C° 0 mm 6 m/S 755 mmHg 66%
    10:00 +10°C° 0 mm 7 m/S 755 mmHg 61%
    11:00 +11°C° 0,1 mm 7 m/S 755 mmHg 60%
    12:00 +11°C° 0,1 mm 7 m/S 754 mmHg 59%
    13:00 +11°C° 0,1 mm 7 m/S 754 mmHg 58%
    14:00 +11°C° 0,1 mm 7 m/S 754 mmHg 59%
    15:00 +10°C° 0,1 mm 6 m/S 754 mmHg 61%
    16:00 +10°C° 0,1 mm 6 m/S 754 mmHg 62%
    17:00 +9°C° 0 mm 6 m/S 753 mmHg 63%
    18:00 +9°C° 0 mm 6 m/S 753 mmHg 64%
    19:00 +8°C° 0 mm 6 m/S 753 mmHg 65%
    20:00 +8°C° 1,1 mm 6 m/S 752 mmHg 70%
    21:00 +8°C° 1,1 mm 7 m/S 752 mmHg 74%
    22:00 +8°C° 1,1 mm 7 m/S 752 mmHg 79%
    23:00 +8°C° 0,4 mm 7 m/S 752 mmHg 79%
    Mehr zeigen